Location: Brantford
(43.1330°N, 80.2670°W)
Time: 00:41:01
(UTC-05:00)

S-56A Canister/Altair - Visible Passes

Search period start: 12 November 2019 00:00
Search period end: 22 November 2019 00:00
Orbit: 634 x 2498 km, 38.9° (Epoch: 10 November)

Date Brightness Start Highest point End Pass type
(mag) Time Alt. Az. Time Alt. Az. Time Alt. Az.
12 Nov 9.5 18:05:10 10° SSW 18:11:02 22° SSE 18:14:46 13° ESE visible
12 Nov 9.3 20:08:27 10° WSW 20:12:13 29° SW 20:12:13 29° SW visible
13 Nov 9.8 17:32:14 10° SSW 17:38:19 21° SSE 17:43:01 10° ESE visible
13 Nov 8.5 19:35:21 10° SW 19:41:23 42° S 19:41:23 42° S visible
14 Nov 8.4 19:02:10 10° SW 19:09:27 43° SSE 19:10:32 39° SE visible
14 Nov 10.4 21:07:06 10° W 21:07:58 14° WSW 21:07:58 14° WSW visible
15 Nov 8.9 18:28:56 10° SW 18:36:45 41° SSE 18:39:41 26° ESE visible
15 Nov 9.7 20:33:59 10° WSW 20:37:06 26° WSW 20:37:06 26° WSW visible
16 Nov 9.2 17:55:40 10° SW 18:04:01 40° SSE 18:08:47 15° E visible
16 Nov 8.7 20:00:47 10° WSW 20:06:13 44° SW 20:06:13 44° SW visible
17 Nov 9.4 17:22:21 10° SW 17:31:13 39° SSE 17:37:21 10° E visible
17 Nov 8.1 19:27:30 10° WSW 19:35:13 59° S 19:35:19 59° S visible
18 Nov 8.3 18:54:07 10° WSW 19:02:31 59° S 19:04:25 43° ESE visible
18 Nov 10.2 20:59:51 10° W 21:01:50 19° W 21:01:50 19° W visible
19 Nov 8.7 18:20:41 10° WSW 18:29:46 58° S 18:33:31 26° ESE visible
19 Nov 9.4 20:26:37 10° W 20:30:56 33° WSW 20:30:56 33° WSW visible
20 Nov 8.9 17:47:11 10° WSW 17:56:58 58° S 18:02:37 14° E visible
20 Nov 8.5 19:53:18 10° W 20:00:02 53° SW 20:00:02 53° SW visible
21 Nov 9.2 17:13:38 10° WSW 17:24:06 57° SSE 17:30:58 10° E visible
21 Nov 8.2 19:19:53 10° W 19:28:17 61° S 19:29:08 57° SSE visible
21 Nov 10.7 21:26:00 10° W 21:26:34 12° W 21:26:34 12° W visible
